TimeEDT,TemperatureF,Dew PointF,Humidity,Sea Level PressureIn,VisibilityMPH,Wind Direction,Wind SpeedMPH,Gust SpeedMPH,PrecipitationIn,Events,Conditions,WindDirDegrees,DateUTC
12:09 AM,59.0,57.2,94,30.05,0.5,Calm,Calm,-,N/A,Fog,Fog,0,2013-09-21 04:09:00
12:52 AM,59.0,57.9,96,30.05,0.5,South,3.5,-,N/A,Fog,Fog,190,2013-09-21 04:52:00
1:11 AM,59.0,57.2,94,30.05,0.2,SSW,3.5,-,N/A,Fog,Fog,200,2013-09-21 05:11:00
1:27 AM,60.8,57.2,88,30.05,0.5,SSW,3.5,-,N/A,Fog,Fog,200,2013-09-21 05:27:00
1:36 AM,60.8,57.2,88,30.05,0.2,South,3.5,-,N/A,Fog,Fog,190,2013-09-21 05:36:00
1:49 AM,59.0,57.2,94,30.05,0.5,SSW,3.5,-,N/A,Fog,Fog,210,2013-09-21 05:49:00
1:52 AM,59.0,57.0,93,30.05,0.5,SSW,3.5,-,N/A,Fog,Fog,210,2013-09-21 05:52:00
2:19 AM,59.0,57.2,94,30.05,0.2,SSW,3.5,-,N/A,Fog,Fog,210,2013-09-21 06:19:00
2:52 AM,59.0,57.0,93,30.04,0.2,SSW,3.5,-,N/A,Fog,Fog,200,2013-09-21 06:52:00
3:01 AM,57.2,57.2,100,30.04,0.5,South,3.5,-,N/A,Fog,Fog,190,2013-09-21 07:01:00
3:20 AM,57.2,55.4,94,30.03,1.8,SSW,3.5,-,N/A,,Mostly Cloudy,200,2013-09-21 07:20:00
3:24 AM,57.2,55.4,94,30.03,3.0,SSW,3.5,-,N/A,,Mostly Cloudy,200,2013-09-21 07:24:00
3:35 AM,57.2,55.4,94,30.04,5.0,SSW,3.5,-,N/A,,Scattered Clouds,210,2013-09-21 07:35:00
3:52 AM,55.0,53.1,93,30.04,6.0,SSW,3.5,-,N/A,,Partly Cloudy,210,2013-09-21 07:52:00
3:59 AM,55.4,53.6,94,30.03,1.5,Calm,Calm,-,N/A,,Scattered Clouds,0,2013-09-21 07:59:00
4:10 AM,55.4,55.4,100,30.03,2.5,Calm,Calm,-,N/A,,Mostly Cloudy,0,2013-09-21 08:10:00
4:17 AM,55.4,53.6,94,30.04,5.0,Calm,Calm,-,N/A,,Mostly Cloudy,0,2013-09-21 08:17:00
4:52 AM,55.0,54.0,96,30.04,9.0,Calm,Calm,-,N/A,,Mostly Cloudy,0,2013-09-21 08:52:00
5:21 AM,55.4,53.6,94,30.03,2.5,Calm,Calm,-,N/A,,Scattered Clouds,0,2013-09-21 09:21:00
5:32 AM,57.2,53.6,88,30.03,1.8,South,3.5,-,N/A,,Scattered Clouds,170,2013-09-21 09:32:00
5:40 AM,57.2,55.4,94,30.02,2.0,SSE,3.5,-,0.01,,Partly Cloudy,150,2013-09-21 09:40:00
5:47 AM,57.2,55.4,94,30.01,1.5,SSE,3.5,-,0.01,,Partly Cloudy,150,2013-09-21 09:47:00
5:52 AM,57.9,55.0,90,30.01,1.5,SSE,3.5,-,0.01,,Partly Cloudy,160,2013-09-21 09:52:00
6:00 AM,57.2,55.4,94,30.01,1.2,SE,3.5,-,N/A,,Scattered Clouds,140,2013-09-21 10:00:00
6:03 AM,57.2,55.4,94,30.01,0.8,SE,3.5,-,N/A,,Mist,140,2013-09-21 10:03:00
6:17 AM,57.2,55.4,94,30.01,0.2,Calm,Calm,-,N/A,Fog,Fog,0,2013-09-21 10:17:00
6:24 AM,57.2,57.2,100,30.01,0.5,Calm,Calm,-,N/A,Fog,Fog,0,2013-09-21 10:24:00
6:33 AM,57.2,55.4,94,30.01,0.2,Calm,Calm,-,N/A,Fog,Fog,0,2013-09-21 10:33:00
6:52 AM,57.9,57.0,97,30.02,0.2,Calm,Calm,-,N/A,Fog,Fog,0,2013-09-21 10:52:00
7:28 AM,57.2,57.2,100,30.02,1.0,Calm,Calm,-,N/A,,Mist,0,2013-09-21 11:28:00
7:34 AM,59.0,57.2,94,30.02,3.0,Calm,Calm,-,N/A,,Mostly Cloudy,0,2013-09-21 11:34:00
7:41 AM,59.0,57.2,94,30.01,10.0,Calm,Calm,-,N/A,,Scattered Clouds,0,2013-09-21 11:41:00
7:52 AM,60.1,59.0,96,30.01,10.0,SSW,3.5,-,N/A,,Clear,200,2013-09-21 11:52:00
8:52 AM,63.0,59.0,87,30.01,10.0,South,4.6,-,N/A,,Clear,190,2013-09-21 12:52:00
9:52 AM,69.1,57.9,68,30.00,10.0,South,10.4,18.4,N/A,,Clear,190,2013-09-21 13:52:00
10:52 AM,69.1,57.9,68,30.00,10.0,SSW,5.8,16.1,N/A,,Overcast,200,2013-09-21 14:52:00
11:52 AM,71.1,59.0,66,29.96,10.0,SSW,9.2,19.6,N/A,,Mostly Cloudy,200,2013-09-21 15:52:00
12:52 PM,72.0,59.0,64,29.94,10.0,SSW,11.5,25.3,N/A,,Mostly Cloudy,210,2013-09-21 16:52:00
1:52 PM,73.9,59.0,59,29.92,10.0,SSW,10.4,18.4,N/A,,Mostly Cloudy,200,2013-09-21 17:52:00
2:52 PM,73.9,59.0,59,29.91,10.0,SSW,10.4,23.0,N/A,,Overcast,210,2013-09-21 18:52:00
3:52 PM,75.0,60.1,60,29.88,10.0,SSW,11.5,21.9,N/A,,Scattered Clouds,200,2013-09-21 19:52:00
4:52 PM,73.9,62.1,66,29.86,10.0,SSE,9.2,18.4,N/A,,Partly Cloudy,160,2013-09-21 20:52:00
5:52 PM,71.1,63.0,75,29.85,10.0,South,10.4,20.7,N/A,,Mostly Cloudy,190,2013-09-21 21:52:00
6:52 PM,70.0,63.0,78,29.85,10.0,South,9.2,16.1,N/A,,Scattered Clouds,180,2013-09-21 22:52:00
7:52 PM,69.1,63.0,81,29.85,10.0,South,9.2,-,N/A,,Mostly Cloudy,170,2013-09-21 23:52:00
8:52 PM,69.1,63.0,81,29.83,10.0,South,10.4,17.3,N/A,,Overcast,180,2013-09-22 00:52:00
9:52 PM,69.1,64.0,84,29.81,10.0,South,9.2,-,N/A,,Overcast,180,2013-09-22 01:52:00
10:52 PM,69.1,64.0,84,29.80,10.0,South,10.4,16.1,N/A,,Overcast,180,2013-09-22 02:52:00
11:52 PM,69.1,64.0,84,29.78,10.0,South,8.1,19.6,0.00,,Overcast,180,2013-09-22 03:52:00